EW7961 Weather Reports


Display with metric or nautical units.
time (UTC)temp
F
wind
direction
speed
MPH
gust
MPH
rain 1hr
in
rain 24hr
in
rain mn
in
humidity
%
barometer
mb
20260903213559 103 288 1.0 3.0 0.00 0.00 0.00 38 1012.9
20260903212516 102 295 1.0 4.0 0.00 0.00 0.00 38 1013.0
20260903211519 101 292 2.0 5.0 0.00 0.00 0.00 39 1013.1
20260903210640 101 297 1.0 4.0 0.00 0.00 0.00 40 1013.2
20260903205600 100 295 2.0 4.0 0.00 0.00 0.00 40 1013.2
20260903204519 100 269 1.0 3.0 0.00 0.00 0.00 40 1013.3
20260903203520 100 288 1.0 3.0 0.00 0.00 0.00 41 1013.4
20260903202520 100 287 3.0 4.0 0.00 0.00 0.00 40 1013.5
20260903201520 100 299 2.0 4.0 0.00 0.00 0.00 41 1013.6
20260903200520 100 285 2.0 4.0 0.00 0.00 0.00 41 1013.7
20260903195641 99 284 2.0 3.0 0.00 0.00 0.00 41 1013.7
20260903194520 98 274 1.0 2.0 0.00 0.00 0.00 43 1013.9
20260903193521 97 292 3.0 4.0 0.00 0.00 0.00 44 1014.1
20260903192521 98 278 2.0 3.0 0.00 0.00 0.00 43 1014.2
20260903191521 97 304 3.0 3.0 0.00 0.00 0.00 44 1014.3
20260903190521 97 296 3.0 4.0 0.00 0.00 0.00 45 1014.4
20260903185601 97 293 1.0 2.0 0.00 0.00 0.00 46 1014.5
20260903184521 97 295 0.0 2.0 0.00 0.00 0.00 45 1014.6
20260903183601 97 287 2.0 3.0 0.00 0.00 0.00 46 1014.6
20260903182521 97 304 2.0 3.0 0.00 0.00 0.00 46 1014.7
20260903181521 97 299 2.0 3.0 0.00 0.00 0.00 46 1014.9
20260903180535 96 291 2.0 3.0 0.00 0.00 0.00 47 1015.0
20260903175535 97 270 2.0 4.0 0.00 0.00 0.00 46 1015.2
20260903174522 96 290 3.0 5.0 0.00 0.00 0.00 46 1015.3
20260903173536 96 290 3.0 5.0 0.00 0.00 0.00 46 1015.3
20260903172538 95 286 2.0 4.0 0.00 0.00 0.00 47 1015.3
20260903171522 95 302 2.0 4.0 0.00 0.00 0.00 49 1015.4
20260903170522 95 302 2.0 5.0 0.00 0.00 0.00 49 1015.6
20260903165522 94 287 2.0 4.0 0.00 0.00 0.00 49 1015.6
20260903164523 94 294 2.0 4.0 0.00 0.00 0.00 50 1015.7
20260903163522 94 288 2.0 5.0 0.00 0.00 0.00 50 1015.8
20260903162524 93 289 2.0 3.0 0.00 0.00 0.00 50 1015.8
20260903161523 93 277 2.0 5.0 0.00 0.00 0.00 51 1015.9
20260903160522 92 294 2.0 4.0 0.00 0.00 0.00 53 1015.9
20260903155523 92 291 1.0 4.0 0.00 0.00 0.00 54 1016.0
20260903154523 91 285 1.0 3.0 0.00 0.00 0.00 57 1016.0
20260903153523 90 286 2.0 3.0 0.00 0.00 0.00 58 1016.0
20260903152524 90 290 2.0 3.0 0.00 0.00 0.00 58 1016.1
20260903151524 89 283 2.0 4.0 0.00 0.00 0.00 59 1016.1
20260903150524 89 275 2.0 3.0 0.00 0.00 0.00 60 1016.0
20260903145524 88 289 2.0 4.0 0.00 0.00 0.00 62 1016.0
20260903144524 87 283 2.0 4.0 0.00 0.00 0.00 63 1016.1
20260903143524 86 277 1.0 2.0 0.00 0.00 0.00 64 1016.1
20260903142525 86 282 2.0 4.0 0.00 0.00 0.00 67 1016.2
20260903141538 85 272 2.0 4.0 0.00 0.00 0.00 68 1016.3
20260903140525 85 271 2.0 3.0 0.00 0.00 0.00 69 1016.3
20260903135525 84 287 2.0 3.0 0.00 0.00 0.00 69 1016.3
20260903134525 83 280 2.0 3.0 0.00 0.00 0.00 70 1016.3
20260903133525 83 285 2.0 3.0 0.00 0.00 0.00 71 1016.3
20260903132525 83 271 2.0 3.0 0.00 0.00 0.00 71 1016.3
20260903131525 83 272 2.0 3.0 0.00 0.00 0.00 72 1016.3
20260903130525 83 273 2.0 2.0 0.00 0.00 0.00 71 1016.3
20260903125540 83 281 2.0 2.0 0.00 0.00 0.00 71 1016.3
20260903124526 82 274 2.0 3.0 0.00 0.00 0.00 71 1016.3
20260903123526 81 276 2.0 3.0 0.00 0.00 0.00 74 1016.2
20260903122531 80 276 2.0 3.0 0.00 0.00 0.00 75 1016.2
20260903121526 80 279 1.0 2.0 0.00 0.00 0.00 76 1016.1
20260903120526 80 277 1.0 2.0 0.00 0.00 0.00 76 1016.1
20260903115526 80 274 1.0 2.0 0.00 0.00 0.00 76 1016.0
20260903113527 80 274 1.0 2.0 0.00 0.00 0.00 75 1015.9
20260903112526 80 280 1.0 2.0 0.00 0.00 0.00 75 1015.8
20260903111527 80 269 1.0 2.0 0.00 0.00 0.00 75 1015.8
20260903110607 80 282 1.0 2.0 0.00 0.00 0.00 74 1015.8
20260903105527 81 285 1.0 2.0 0.00 0.00 0.00 74 1015.7
20260903104527 81 281 1.0 2.0 0.00 0.00 0.00 74 1015.6
20260903103527 81 279 2.0 2.0 0.00 0.00 0.00 73 1015.6
20260903102527 81 279 1.0 2.0 0.00 0.00 0.00 73 1015.6
20260903101528 81 271 1.0 2.0 0.00 0.00 0.00 73 1015.5
20260903095528 82 272 1.0 2.0 0.00 0.00 0.00 72 1015.4
20260903094528 82 284 2.0 2.0 0.00 0.00 0.00 71 1015.4
20260903093528 82 282 1.0 2.0 0.00 0.00 0.00 71 1015.4
20260903092528 82 286 1.0 2.0 0.00 0.00 0.00 70 1015.4
20260903091528 82 283 1.0 2.0 0.00 0.00 0.00 70 1015.4
20260903090528 82 279 1.0 3.0 0.00 0.00 0.00 69 1015.4
20260903085528 82 289 1.0 2.0 0.00 0.00 0.00 70 1015.4
20260903084528 82 279 1.0 2.0 0.00 0.00 0.00 70 1015.3
20260903083529 82 277 1.0 2.0 0.00 0.00 0.00 70 1015.3
20260903082530 83 292 1.0 2.0 0.00 0.00 0.00 70 1015.3
20260903081538 83 284 1.0 2.0 0.00 0.00 0.00 70 1015.3
20260903080609 83 276 1.0 2.0 0.00 0.00 0.00 70 1015.3
20260903075529 83 289 1.0 2.0 0.00 0.00 0.00 70 1015.3
20260903074614 83 289 1.0 2.0 0.00 0.00 0.00 69 1015.2
20260903073609 83 285 1.0 2.0 0.00 0.00 0.00 69 1015.3
20260903072529 84 281 2.0 3.0 0.00 0.00 0.00 68 1015.3
20260903071522 84 285 1.0 2.0 0.00 0.00 0.00 68 1015.3
20260903070518 84 284 1.0 2.0 0.00 0.00 0.00 67 1015.2
20260903065518 84 283 1.0 2.0 0.00 0.00 0.00 67 1015.2
20260903064559 84 289 1.0 2.0 0.00 0.00 0.00 67 1015.3
20260903063519 84 291 1.0 2.0 0.00 0.00 0.00 67 1015.3
20260903062518 84 289 1.0 2.0 0.00 0.00 0.00 67 1015.4
20260903061519 85 290 1.0 2.0 0.00 0.00 0.00 66 1015.3
20260903060519 85 285 1.0 3.0 0.00 0.00 0.00 66 1015.3
20260903055518 85 292 1.0 2.0 0.00 0.00 0.00 66 1015.3
20260903054522 85 304 1.0 2.0 0.00 0.00 0.00 65 1015.3
20260903053522 85 292 1.0 2.0 0.00 0.00 0.00 65 1015.3
20260903052519 85 292 1.0 2.0 0.00 0.00 0.00 65 1015.3
20260903051519 86 294 0.0 1.0 0.00 0.00 0.00 64 1015.2
20260903050519 86 296 1.0 2.0 0.00 0.00 0.00 64 1015.2
20260903045516 86 301 1.0 1.0 0.00 0.00 0.00 63 1015.2
20260903044517 86 287 1.0 2.0 0.00 0.00 0.00 63 1015.1
20260903043600 87 292 1.0 3.0 0.00 0.00 0.00 62 1015.1
20260903042520 87 291 1.0 2.0 0.00 0.00 0.00 62 1015.1
20260903041517 87 291 1.0 2.0 0.00 0.00 0.00 61 1015.0
20260903040517 87 288 1.0 3.0 0.00 0.00 0.00 61 1015.1
20260903035557 88 294 1.0 2.0 0.00 0.00 0.00 61 1015.1
20260903034521 88 296 1.0 2.0 0.00 0.00 0.00 60 1015.1
20260903033518 88 297 1.0 2.0 0.00 0.00 0.00 60 1015.1
20260903032518 88 293 1.0 3.0 0.00 0.00 0.00 59 1015.1
20260903031517 89 298 1.0 3.0 0.00 0.00 0.00 59 1015.1
20260903030518 89 297 1.0 2.0 0.00 0.00 0.00 59 1015.1
20260903025521 89 294 1.0 3.0 0.00 0.00 0.00 59 1015.0
20260903024518 89 294 1.0 2.0 0.00 0.00 0.00 59 1015.0
20260903023518 89 296 1.0 2.0 0.00 0.00 0.00 58 1015.0
20260903022518 90 290 1.0 3.0 0.00 0.00 0.00 58 1014.9
20260903021558 90 283 1.0 2.0 0.00 0.00 0.00 57 1014.8
20260903020518 90 290 1.0 3.0 0.00 0.00 0.00 57 1014.8
20260903015518 91 290 1.0 2.0 0.00 0.00 0.00 56 1014.7
20260903014519 91 289 2.0 3.0 0.00 0.00 0.00 55 1014.5
20260903013519 91 295 1.0 4.0 0.00 0.00 0.00 54 1014.4
20260903012519 92 294 1.0 4.0 0.00 0.00 0.00 53 1014.3
20260903011519 92 292 1.0 6.0 0.00 0.00 0.00 52 1014.2
20260903010519 93 298 1.0 3.0 0.00 0.00 0.00 51 1014.1
20260903005520 93 300 1.0 2.0 0.00 0.00 0.00 50 1014.1
20260903004519 94 299 1.0 2.0 0.00 0.00 0.00 48 1014.0
20260903003600 94 297 1.0 2.0 0.00 0.00 0.00 46 1014.0
20260903002520 95 295 0.0 2.0 0.00 0.00 0.00 45 1013.9
20260903001557 95 293 1.0 2.0 0.00 0.00 0.00 43 1013.9
20260903000557 96 286 0.0 4.0 0.00 0.00 0.00 42 1013.9
20260902235520 97 299 1.0 2.0 0.00 0.00 0.00 41 1013.8
20260902234520 97 296 1.0 2.0 0.00 0.00 0.00 40 1013.7
20260902233517 98 295 1.0 5.0 0.00 0.00 0.00 39 1013.7
20260902232517 98 300 1.0 4.0 0.00 0.00 0.00 39 1013.7
20260902231517 99 299 1.0 4.0 0.00 0.00 0.00 38 1013.8
20260902230521 99 293 2.0 4.0 0.00 0.00 0.00 38 1013.7
20260902225518 100 296 1.0 5.0 0.00 0.00 0.00 38 1013.7
20260902224558 100 299 1.0 4.0 0.00 0.00 0.00 37 1013.7
20260902223518 101 295 2.0 4.0 0.00 0.00 0.00 37 1013.7
20260902222518 102 294 2.0 4.0 0.00 0.00 0.00 36 1013.7
20260902221521 104 290 1.0 3.0 0.00 0.00 0.00 35 1013.7
20260902220518 104 298 1.0 5.0 0.00 0.00 0.00 34 1013.8
20260902215518 105 287 1.0 4.0 0.00 0.00 0.00 34 1013.8
20260902214519 104 289 1.0 3.0 0.00 0.00 0.00 36 1013.9